Regional Weather Roundup
Issued by NWS Newport/Morehead, NC

Current Version | Previous Version | Graphics & Text | Print | Product List | Glossary Off
Versions: 1 2 3 4 5 6 7 8 9 10 11 12 13 14 15 16 17 18 19 20 21 22 23 24 25 26 27 28 29 30 31 32 33 34 35 36 37 38 39 40 41 42 43 44 45 46 47 48 49 50
000 ASUS42 KMHX 231125 RWRMHX WEATHER ROUNDUP FOR EASTERN NORTH CAROLINA NATIONAL WEATHER SERVICE NEWPORT/MOREHEAD CITY NC 700 AM EDT FRI JUN 23 2017 NOTE: "FAIR" INDICATES FEW OR NO CLOUDS BELOW 12,000 FEET WITH NO SIGNIFICANT WEATHER AND/OR OBSTRUCTIONS TO VISIBILITY NCZ015>017-031-032-045>047-102-103-231200- NORTH COAST CITY SKY/WX TMP DP RH WIND PRES REMARKS EDENTON CLOUDY 78 75 90 CALM 30.01R ELIZABETH CITY CLOUDY 77 74 90 S6 29.99S KITTY HAWK CLOUDY 77 73 88 SW3 29.99S MANTEO CLOUDY 76 74 93 W10 30.00S $$ NCZ045>047-081-094-103-104-231200- CENTRAL COAST CITY SKY/WX TMP DP RH WIND PRES REMARKS FRISCO MOSUNNY 79 76 90 SW7 30.02S $$ NCZ095-097-098-100-101-231200- SOUTHERN COAST CITY SKY/WX TMP DP RH WIND PRES REMARKS BEAUFORT PTSUNNY 80 79 96 SW9 30.03S CEDAR ISLAND NOT AVBL JACKSONVILLE CLOUDY 77 77 100 SW7 30.02S PINEY ISLAND CLOUDY N/A N/A N/A SW7 30.02S WILMINGTON CLOUDY 79 77 94 SW7 30.02F $$ NCZ011>013-027>030-043-044-078>080-089-090>093-098-231200- COASTAL PLAIN CITY SKY/WX TMP DP RH WIND PRES REMARKS AHOSKIE DRIZZLE 72 71 97 S5 29.99S CLINTON PTSUNNY 76 76 100 CALM 30.03R FOG ELIZABETHTOWN NOT AVBL GOLDSBORO CLOUDY 77 77 99 SW10 29.99S GREENVILLE CLOUDY 77 77 100 SW6 30.02S HAVELOCK CLOUDY 78 75 90 SW10 30.03S KENANSVILLE CLOUDY 77 75 94 SW5 30.02R FOG KINSTON CLOUDY 77 75 94 SW6 30.02R FOG NEW BERN CLOUDY 77 76 96 SW7 30.03S FOG RICHLANDS CLOUDY 77 76 96 SW6 30.03S ROCKY MOUNT CLOUDY 75 75 100 SW6 30.00R WASHINGTON CLOUDY 76 74 95 SW6 30.01S WHITEVILLE CLOUDY 79 76 90 SW6 30.03R $$ AMZ130-135-150-152-154-156-158-170-250-252-270-ANZ085-086-088-633-658-670-231200- MARINE OBSERVATIONS STATION/POSITION TIME TEMP WIND PRES WAVE SWELL AIR SEA DIR/SP/G HT/PER HT/PER (UTC) (F) (DEG/KT/KT) (MB) (FT/S) (FT/S) CHESAPEAKE LIGHT NOT AVBL 64 E VA BEACH 1050 74 72 250/ 12/ 16 1015.3 3/ 8 3/ 8 DUCK 1100 78 62 220/ 11/ 13 1015.1 2 E DUCK NOT AVBL OREGON INLET 1100 78 78 230/ 12/ 14 1015.8 13E OREGON INLT 1048 72 N/A 3/ 8 2/ 8 HATTERAS CG 1100 78 78 230/ 6/ 9 1016.4 DIAMOND BUOY 1050 80 80 240/ 14/ 16 1016.4 3/ 8 2/ 8 CAPE LOOKOUT 1100 79 240/ 10/ 13 1016.7 BEAUFORT LAB 1100 79 77 240/ 3/ 8 1016.2 30 SE NEW RVR IN 1108 79 80 250/ 12/ 16 1017.2 30 SE NEW RVR IN 1113 80 N/A 4/ 8 27 SE WRIGHTSVLE 1108 79 80 230/ 10/ 14 1016.6 5 SE WRIGHTSVLE 1108 80 79 240/ 12/ 16 1016.5 225 S CAPE HAT 1050 80 81 230/ 10/ 12 1019.0 4/ 9 3/ 9 41 SE CHARLESTON 1110 81 81 210/ 16/ 17 1017.5 $$

USA.gov is the U.S. government's official web portal to all federal, state and local government web resources and services.